FW5642 Weather Reports


Display with metric or nautical units.
time (UTC)temp
F
wind
direction
speed
MPH
gust
MPH
rain 1hr
in
rain 24hr
in
rain mn
in
humidity
%
barometer
mb
20260904110035 51 112 0.0 0.0 0.00 0.05 0.00 92 1013.9
20260904104536 51 112 0.0 0.0 0.00 0.05 0.00 92 1013.7
20260904103032 51 112 0.0 0.0 0.00 0.05 0.00 92 1013.7
20260904100035 51 112 0.0 0.0 0.00 0.05 0.00 91 1013.5
20260904093034 51 103 0.0 0.0 0.00 0.05 0.00 91 1013.3
20260904084533 51 61 0.0 0.0 0.00 0.05 0.00 91 1013.2
20260904080037 50 226 0.0 0.0 0.00 0.05 0.00 90 1013.0
20260904074605 50 258 0.0 2.0 0.00 0.05 0.00 89 1013.0
20260904073030 50 225 0.0 0.0 0.00 0.05 0.00 88 1013.0
20260904071531 50 140 0.0 0.0 0.00 0.05 0.00 87 1012.9
20260904070034 51 177 0.0 0.0 0.00 0.05 0.00 86 1012.8
20260904064606 52 204 0.0 0.0 0.00 0.05 0.05 85 1012.8
20260904063036 53 234 0.0 5.0 0.00 0.05 0.05 85 1012.7
20260904061536 53 243 0.0 4.0 0.00 0.05 0.05 85 1012.6
20260904060036 53 235 1.0 6.0 0.00 0.05 0.05 85 1012.5
20260904054537 53 226 0.0 4.0 0.00 0.05 0.05 86 1012.5
20260904051531 53 253 1.0 6.0 0.00 0.05 0.05 87 1012.6
20260904044534 53 241 1.0 6.0 0.00 0.05 0.05 89 1012.7
20260904043036 53 244 0.0 5.0 0.00 0.05 0.05 89 1012.7
20260904041535 52 205 0.0 3.0 0.00 0.06 0.05 89 1012.7
20260904040035 52 221 0.0 7.0 0.00 0.06 0.05 90 1012.7
20260904034643 53 228 0.0 4.0 0.00 0.06 0.05 90 1012.6
20260904033034 54 239 0.0 5.0 0.00 0.06 0.05 90 1012.5
20260904031529 54 244 1.0 6.0 0.00 0.06 0.05 89 1012.2
20260904030031 54 229 0.0 7.0 0.03 0.07 0.05 89 1012.2
20260904024535 54 248 1.0 5.0 0.03 0.10 0.05 89 1012.1
20260904023030 55 223 1.0 8.0 0.03 0.21 0.05 88 1012.1
20260904020035 55 226 2.0 9.0 0.00 0.18 0.02 87 1012.0
20260904014534 55 233 0.0 5.0 0.01 0.18 0.02 87 1011.8
20260904013036 55 264 1.0 5.0 0.01 0.18 0.02 87 1011.7
20260904011535 55 334 0.0 5.0 0.01 0.18 0.02 86 1011.7
20260904010035 55 248 0.0 6.0 0.01 0.18 0.01 85 1011.7
20260904003036 55 251 3.0 10.0 0.01 0.17 0.01 81 1011.8
20260904001533 59 258 6.0 14.0 0.01 0.17 0.00 71 1011.6
20260903234535 61 246 6.0 14.0 0.00 0.16 0.00 66 1011.6
20260903233032 62 268 4.0 13.0 0.00 0.16 0.00 64 1011.4
20260903231533 63 288 5.0 12.0 0.00 0.16 0.00 63 1011.3
20260903224535 65 139 0.0 4.0 0.00 0.17 0.00 64 1011.4
20260903223034 66 166 0.0 0.0 0.00 0.17 0.00 61 1011.5
20260903220035 68 231 0.0 3.0 0.00 0.17 0.00 55 1011.4
20260903214530 69 212 0.0 3.0 0.00 0.17 0.00 54 1011.5
20260903204533 65 314 2.0 9.0 0.00 0.18 0.00 64 1011.9
20260903201530 63 346 2.0 7.0 0.00 0.18 0.00 66 1012.2
20260903194609 64 355 3.0 8.0 0.00 0.19 0.00 70 1012.6
20260903193032 61 87 0.0 3.0 0.00 0.20 0.00 73 1013.1
20260903191650 62 46 0.0 4.0 0.00 0.20 0.00 73 1013.2
20260903190035 61 328 1.0 5.0 0.00 0.20 0.00 78 1013.2
20260903184533 60 43 0.0 4.0 0.00 0.20 0.00 81 1013.4
20260903183143 59 51 0.0 4.0 0.00 0.20 0.00 84 1013.5
20260903181651 59 292 0.0 2.0 0.00 0.20 0.00 88 1013.6
20260903180031 58 310 0.0 3.0 0.00 0.20 0.00 90 1013.6
20260903173031 56 315 0.0 1.0 0.00 0.20 0.00 93 1013.7
20260903171536 55 337 0.0 3.0 0.00 0.20 0.00 95 1013.6
20260903164529 54 315 0.0 0.0 0.00 0.20 0.00 97 1013.9
20260903163054 53 308 0.0 3.0 0.00 0.20 0.00 97 1013.8
20260903161642 52 354 0.0 0.0 0.00 0.20 0.00 97 1014.0
20260903160046 52 305 0.0 0.0 0.00 0.20 0.00 97 1014.0
20260903154536 52 270 0.0 0.0 0.00 0.20 0.00 97 1013.9
20260903153031 51 270 0.0 0.0 0.00 0.20 0.00 97 1014.0
20260903151652 51 270 0.0 0.0 0.00 0.20 0.00 97 1014.0
20260903150036 50 201 0.0 0.0 0.00 0.20 0.00 97 1013.9
20260903144534 49 180 0.0 0.0 0.00 0.20 0.00 97 1013.7
20260903143031 48 180 0.0 0.0 0.00 0.20 0.00 97 1013.8
20260903140037 47 180 0.0 0.0 0.00 0.20 0.00 97 1013.7
20260903134534 47 181 0.0 0.0 0.00 0.20 0.00 97 1013.6
20260903133037 47 214 0.0 1.0 0.00 0.20 0.00 97 1013.5
20260903131534 48 105 0.0 0.0 0.00 0.20 0.00 97 1013.3
20260903124608 47 62 0.0 0.0 0.00 0.20 0.00 96 1013.3
20260903123032 47 67 0.0 0.0 0.00 0.20 0.00 96 1013.3
20260903121543 48 336 0.0 0.0 0.00 0.20 0.00 97 1013.3
20260903120105 47 144 0.0 0.0 0.00 0.20 0.00 96 1013.2
20260903114535 46 111 0.0 0.0 0.00 0.20 0.00 96 1013.2
20260903113036 46 147 0.0 0.0 0.00 0.20 0.00 96 1013.3
20260903111536 46 5 0.0 2.0 0.00 0.20 0.00 96 1013.1